Date String (YYYY-MM-DD hh:mm:ss) UTC,Instrument flags,Ambient pressure (hPa),Sample flow (lpm),Bypass flow (lpm),Sample temperature (°C),Ambient temperature (°C),ASC tube jacket temperature (°C),LED temperature (°C),Box temperature (°C),Sample RH (%),Span deviation,Mass concentration (μg/m³),Mass concentration (μg/m³),Mass concentration (μg/m³)
DateTimeUTC,F1_M11,P_M11,Q1_M11,Q2_M11,T1_M11,T2_M11,T3_M11,T4_M11,T5_M11,U1_M11,ZSPAN_M11,X2_M11,X0_M11,X1_M11
2022-10-29 02:00:00,,0830.1,5.02,0.00,28.9,27.1,00.0,37.8,30.6,10.9,0000.0,0003.77,0008.08,0003.53
2022-10-29 02:01:00,,0830.1,4.99,0.00,28.9,27.1,00.0,37.8,30.6,10.9,0000.0,0003.76,0008.07,0003.53
2022-10-29 02:02:00,,0830.1,5.01,0.00,28.8,27.1,00.0,37.8,30.6,10.9,0000.0,0003.76,0008.11,0003.53
2022-10-29 02:03:00,,0830.1,4.99,0.00,28.8,27.0,00.0,37.8,30.5,11.0,0000.0,0003.78,0008.15,0003.54
2022-10-29 02:04:00,,0830.1,4.99,0.00,28.8,27.0,00.0,37.8,30.5,11.0,0000.0,0003.79,0008.36,0003.53
2022-10-29 02:05:00,,0830.1,5.02,0.00,28.8,27.0,00.0,37.8,30.5,11.0,0000.0,0003.79,0008.35,0003.52
2022-10-29 02:06:00,,0830.2,5.00,0.00,28.8,27.0,00.0,37.7,30.5,11.0,0000.0,0003.79,0008.32,0003.52
2022-10-29 02:07:00,,0830.1,4.99,0.00,28.8,27.0,00.0,37.7,30.5,11.1,0000.0,0003.81,0008.66,0003.51
2022-10-29 02:08:00,,0830.1,5.02,0.00,28.8,27.0,00.0,37.7,30.5,11.1,0000.0,0003.82,0008.35,0003.51
2022-10-29 02:09:00,,0830.0,4.99,0.00,28.7,26.9,00.0,37.7,30.5,11.1,0000.0,0003.84,0007.89,0003.51
2022-10-29 02:10:00,,0830.1,4.99,0.00,28.7,26.9,00.0,37.7,30.5,11.0,0000.0,0003.85,0007.36,0003.51
2022-10-29 02:11:00,,0830.1,5.00,0.00,28.7,26.9,00.0,37.7,30.4,11.0,0000.0,0003.85,0007.38,0003.50
2022-10-29 02:12:00,,0830.1,5.01,0.00,28.7,26.9,00.0,37.7,30.4,11.0,0000.0,0003.89,0007.46,0003.50
2022-10-29 02:13:00,,0830.1,4.99,0.00,28.7,26.9,00.0,37.7,30.4,11.0,0000.0,0003.90,0007.45,0003.50
2022-10-29 02:14:00,,0830.1,4.99,0.00,28.7,26.9,00.0,37.7,30.3,11.0,0000.0,0003.86,0007.24,0003.49
2022-10-29 02:15:00,,0830.1,5.02,0.00,28.6,26.8,00.0,37.6,30.2,11.0,0000.0,0003.83,0006.77,0003.48
2022-10-29 02:16:00,,0830.1,5.00,0.00,28.6,26.8,00.0,37.6,30.3,11.1,0000.0,0003.81,0006.67,0003.48
2022-10-29 02:17:00,,0830.1,5.00,0.00,28.6,26.8,00.0,37.6,30.2,11.1,0000.0,0003.81,0006.63,0003.48
2022-10-29 02:18:00,,0830.1,5.00,0.00,28.6,26.8,00.0,37.6,30.2,11.2,0000.0,0003.80,0006.21,0003.48
2022-10-29 02:19:00,,0830.1,5.00,0.00,28.6,26.7,00.0,37.6,30.2,11.1,0000.0,0003.79,0006.40,0003.48
2022-10-29 02:20:00,,0830.1,5.02,0.00,28.6,26.7,00.0,37.6,30.2,11.1,0000.0,0003.79,0006.30,0003.48
2022-10-29 02:21:00,,0830.1,4.99,0.00,28.6,26.7,00.0,37.6,30.2,11.2,0000.0,0003.78,0006.11,0003.48
2022-10-29 02:22:00,,0830.1,4.99,0.00,28.5,26.7,00.0,37.5,30.2,11.2,0000.0,0003.77,0006.08,0003.48
2022-10-29 02:23:00,,0830.1,5.02,0.00,28.5,26.7,00.0,37.5,30.3,11.2,0000.0,0003.75,0006.02,0003.49
2022-10-29 02:24:00,,0830.1,4.99,0.00,28.5,26.7,00.0,37.5,30.2,11.2,0000.0,0003.74,0005.95,0003.49
2022-10-29 02:25:00,,0830.1,4.99,0.00,28.5,26.7,00.0,37.5,30.2,11.1,0000.0,0003.76,0006.07,0003.49
2022-10-29 02:26:00,,0830.1,5.02,0.00,28.5,26.6,00.0,37.5,30.1,11.2,0000.0,0003.78,0006.27,0003.49
2022-10-29 02:27:00,,0830.1,5.00,0.00,28.5,26.6,00.0,37.5,30.1,11.2,0000.0,0003.80,0006.37,0003.49
2022-10-29 02:28:00,,0830.1,4.99,0.00,28.5,26.6,00.0,37.5,30.1,11.2,0000.0,0003.78,0006.25,0003.50
2022-10-29 02:29:00,,0830.1,4.99,0.00,28.4,26.6,00.0,37.5,30.1,11.2,0000.0,0003.78,0007.28,0003.50
2022-10-29 02:30:00,,0830.0,4.99,0.00,28.4,26.6,00.0,37.4,30.1,11.2,0000.0,0003.77,0007.19,0003.50
2022-10-29 02:31:00,,0830.1,5.01,0.00,28.4,26.5,00.0,37.4,30.1,11.1,0000.0,0003.76,0007.14,0003.49
2022-10-29 02:32:00,,0830.1,5.00,0.00,28.4,26.5,00.0,37.4,30.0,11.1,0000.0,0003.75,0007.15,0003.49
2022-10-29 02:33:00,,0830.1,5.00,0.00,28.4,26.5,00.0,37.4,30.0,11.1,0000.0,0003.75,0007.15,0003.49
2022-10-29 02:34:00,,0830.1,5.00,0.00,28.4,26.5,00.0,37.4,30.0,10.9,0000.0,0003.79,0007.26,0003.49
2022-10-29 02:35:00,,0830.1,5.01,0.00,28.4,26.5,00.0,37.4,30.0,10.7,0000.0,0003.80,0007.30,0003.49
2022-10-29 02:36:00,,0830.1,5.00,0.00,28.4,26.5,00.0,37.4,30.0,10.6,0000.0,0003.80,0007.50,0003.48
2022-10-29 02:37:00,,0830.1,4.99,0.00,28.3,26.5,00.0,37.3,30.0,10.7,0000.0,0003.80,0007.60,0003.47
2022-10-29 02:38:00,,0830.1,5.00,0.00,28.3,26.5,00.0,37.3,30.0,10.7,0000.0,0003.79,0007.58,0003.47
2022-10-29 02:39:00,,0830.1,4.99,0.00,28.3,26.5,00.0,37.3,29.9,10.7,0000.0,0003.80,0007.65,0003.46
2022-10-29 02:40:00,,0830.1,5.01,0.00,28.3,26.4,00.0,37.3,29.8,10.7,0000.0,0003.78,0006.54,0003.45
2022-10-29 02:41:00,,0830.1,5.00,0.00,28.3,26.4,00.0,37.3,29.9,10.6,0000.0,0003.78,0006.67,0003.43
2022-10-29 02:42:00,,0830.1,4.99,0.00,28.2,26.4,00.0,37.3,29.9,10.7,0000.0,0003.78,0006.73,0003.42
2022-10-29 02:43:00,,0830.1,5.00,0.00,28.2,26.3,00.0,37.3,29.8,10.8,0000.0,0003.77,0006.64,0003.41
2022-10-29 02:44:00,,0830.1,4.99,0.00,28.2,26.3,00.0,37.3,29.8,10.5,0000.0,0003.75,0006.55,0003.41
2022-10-29 02:45:00,,0830.1,5.02,0.00,28.2,26.3,00.0,37.2,29.8,10.5,0000.0,0003.69,0006.98,0003.39
2022-10-29 02:46:00,,0830.1,5.00,0.00,28.2,26.3,00.0,37.2,29.9,10.6,0000.0,0003.66,0007.62,0003.38
2022-10-29 02:47:00,,0830.1,5.00,0.00,28.2,26.3,00.0,37.2,29.9,10.6,0000.0,0003.64,0007.32,0003.37
2022-10-29 02:48:00,,0830.1,5.01,0.00,28.2,26.4,00.0,37.2,29.9,10.6,0000.0,0003.62,0007.04,0003.37
2022-10-29 02:49:00,,0830.1,5.00,0.00,28.2,26.4,00.0,37.2,29.9,10.6,0000.0,0003.61,0007.12,0003.36
2022-10-29 02:50:00,,0830.1,5.00,0.00,28.1,26.4,00.0,37.1,29.8,10.4,0000.0,0003.63,0007.23,0003.36
2022-10-29 02:51:00,,0830.1,4.99,0.00,28.1,26.3,00.0,37.1,29.8,10.4,0000.0,0003.66,0007.31,0003.37
2022-10-29 02:52:00,,0830.1,4.99,0.00,28.1,26.3,00.0,37.1,29.8,10.5,0000.0,0003.67,0007.22,0003.38
2022-10-29 02:53:00,,0830.1,5.00,0.00,28.1,26.3,00.0,37.1,29.9,10.5,0000.0,0003.67,0007.20,0003.39
2022-10-29 02:54:00,,0830.1,5.00,0.00,28.1,26.3,00.0,37.1,29.9,10.5,0000.0,0003.70,0007.51,0003.40
2022-10-29 02:55:00,,0830.1,5.00,0.00,28.1,26.3,00.0,37.1,29.9,10.4,0000.0,0003.70,0008.06,0003.39
2022-10-29 02:56:00,,0830.1,4.99,0.00,28.1,26.3,00.0,37.1,29.9,10.6,0000.0,0003.71,0007.70,0003.39
2022-10-29 02:57:00,,0830.1,5.00,0.00,28.1,26.3,00.0,37.1,29.8,10.5,0000.0,0003.72,0007.11,0003.40
2022-10-29 02:58:00,,0830.1,5.00,0.00,28.1,26.2,00.0,37.0,29.7,10.4,0000.0,0003.75,0007.33,0003.39
2022-10-29 02:59:00,,0830.1,4.99,0.00,28.1,26.2,00.0,37.0,29.7,10.5,0000.0,0003.76,0007.74,0003.39
